   (1/a)org.= +0.001311, (1/a)fut.= +0.001837 (+/-0.000034), Q= 5.



NAKANO

         **** Don't distribute anyone except personal use only ****

                (C) Copyright 2005 OAA/ComputingSection

write mail from CFAD0::NAKANO on 2005-10-01 02:43:05(JST).

 

◎C/2005 N1の軌道と予報位置です



 上尾の門田健一氏から9月に入ってからの観測が報告されました.氏の CCD全

光度は,9月1日に12.5等,7日に12.7等でした.なお,彗星は,長円軌道を動

いています.



    C/2005 N1 (Juels-Holvorcem)

T 2005 Aug. 22.04006 TT                                 Nakano

q   1.1254416            (2000.0)            P               Q

z  +0.0013919      Peri.   80.04413     +0.13771364     -0.98949256

 +/-0.0000576      Node     3.24030     +0.26929402     -0.00538243

e   0.9984335      Incl.   51.18022     +0.95316089     +0.14448356

From 100 observations 2005 July 3-Sept. 7.

 

Date/        TT  R.A.(2000) Decl.     Delta   r     Daily motion  Mag.  Moon Age

              h    h  m       。  ,                      ,  / PA 。  m1      。

2005 Sept.10 18  10 37.59  +40 48.4   1.803  1.170    57.5 / 126  12.5  104  .42

          11 18  10 41.67  +40 14.7   1.811  1.174    56.9 / 126  12.5  116  .53

          12 18  10 45.65  +39 40.8   1.820  1.179    56.2 / 127  12.5  127  .64

          13 18  10 49.52  +39 06.9   1.829  1.184    55.6 / 127  12.5  138  .75

          14 18  10 53.29  +38 33.0   1.838  1.189    54.9 / 128  12.6  147  .84

          15 18  10 56.96  +37 59.2   1.847  1.194    54.3 / 128  12.6  154  .92

          16 18  11 00.54  +37 25.3   1.857  1.199    53.6 / 129  12.6  154  .97

          17 18  11 04.02  +36 51.6   1.866  1.205    53.0 / 129  12.7  149 1.00

          18 18  11 07.42  +36 17.9   1.875  1.211    52.4 / 130  12.7  139  .99

          19 18  11 10.73  +35 44.3   1.884  1.217    51.7 / 130  12.7  128  .96

          20 18  11 13.96  +35 10.9   1.893  1.223    51.1 / 130  12.8  116  .91

          21 18  11 17.12  +34 37.6   1.903  1.229    50.5 / 131  12.8  105  .83

          22 18  11 20.19  +34 04.4   1.912  1.235    49.9 / 131  12.8   94  .74

          23 18  11 23.20  +33 31.4   1.921  1.242    49.3 / 131  12.9   83  .65

          24 18  11 26.14  +32 58.6   1.931  1.249    48.7 / 132  12.9   72  .55

          25 18  11 29.01  +32 26.1   1.940  1.256    48.1 / 132  12.9   62  .45

          26 18  11 31.81  +31 53.7   1.949  1.263    47.6 / 132  13.0   52  .36

          27 18  11 34.55  +31 21.5   1.958  1.270    47.0 / 133  13.0   43  .27

          28 18  11 37.24  +30 49.6   1.967  1.277    46.4 / 133  13.0   34  .19

          29 18  11 39.86  +30 17.9   1.977  1.285    45.9 / 133  13.1   27  .12

          30 18  11 42.43  +29 46.4   1.986  1.292    45.3 / 133  13.1   23  .07

     Oct.  1 18  11 44.95  +29 15.2   1.995  1.300    44.8 / 134  13.1   24  .03

           2 18  11 47.41  +28 44.3   2.004  1.308    44.2 / 134  13.2   29  .00

           3 18  11 49.83  +28 13.6   2.013  1.316    43.7 / 134  13.2   37  .00

           4 18  11 52.19  +27 43.2   2.021  1.324    43.1 / 134  13.2   47  .02

           5 18  11 54.51  +27 13.0   2.030  1.332    42.6 / 134  13.3   57  .05

           6 18  11 56.78  +26 43.1   2.039  1.341    42.1 / 135  13.3   68  .11

           7 18  11 59.01  +26 13.5   2.047  1.349    41.6 / 135  13.4   80  .19

           8 18  12 01.20  +25 44.2   2.056  1.358    41.1 / 135  13.4   92  .28

           9 18  12 03.34  +25 15.1   2.064  1.366    40.6 / 135  13.4  104  .38

          10 18  12 05.45  +24 46.3   2.073  1.375    40.1 / 135  13.5  116  .50

NAKANO

         **** Don't distribute anyone except personal use only ****

                (C) Copyright 2005 OAA/ComputingSection

write mail from CFAD0::NAKANO on 2005-09-12 03:50:34(JST).



    C/2005 N1 (Juels-Holvorcem)

T 2005 Aug. 22.01645 TT                                 Nakano

q   1.1257637            (2000.0)            P               Q

                   Peri.   80.02028     +0.13803389     -0.98944312

                   Node     3.24843     +0.26937402     -0.00538861

e   1.0            Incl.   51.17661     +0.95309196     +0.14482153

From 72 observations 2005 July 3-Aug. 7.



NAKANO

         **** Don't distribute anyone except personal use only ****

                (C) Copyright 2005 OAA/ComputingSection

write mail from CFAD0::NAKANO on 2005-08-10 06:05:41(JST).

 

◎C/2005 N1の軌道と予報位置です



  上尾の門田健一氏から,7月6日の観測が報告されました.氏の CCD全光度

は,14.3等でした.

 発見観測が悪く,まだ,確かな軌道が決定できませんが,この彗星は,次の

彗星と軌道が良く似ています.ただし,2005 N1の軌道は,多少,双曲線ぎみに

あります.なお,長谷川一郎氏によると,1793 S1 = 1860 H1の同定は,ピータ

ズによって指摘されたもので,彼は,すぐにこの同定を否定したとのことです.



  Comet         T              q       e        Peri.   Node    Inc.

  2005 N1 (ORG) 2005 08 21.92  1.1271  1.0000   79.90    3.21   51.13

  1793 S1       1793 11 19.99  1.5045  1.0000   69.33    5.17   51.93

  1860 H1       1860 03 06.06  1.3066  1.0000   41.21   10.82   48.23



    C/2005 N1 (Juels-Holvorcem)                                           

T 2005 Aug. 21.92075 TT                                 Nakano

q   1.1270669            (2000.0)            P               Q

                   Peri.   79.90165     +0.14045902     -0.98912602

                   Node     3.21046     +0.27014057     -0.00407964

e   1.0            Incl.   51.12577     +0.95252052     +0.14701389

From 22 observations 2005 June 30-July 6.

 

Date/        TT  R.A.(2000) Decl.     Delta   r     Daily motion  Mag.  Moon Age

              h    h  m       。  ,                      ,  / PA 。  m1      。

2005 July  7 18  03 38.19  +38 24.4   1.801  1.338    64.4 /  53  14.0   58  .02

           8 18  03 42.58  +39 03.2   1.790  1.329    65.0 /  53  14.0   68  .05

           9 18  03 47.09  +39 41.9   1.779  1.321    65.7 /  54  14.0   79  .09

          10 18  03 51.72  +40 20.5   1.769  1.313    66.3 /  54  13.9   89  .16

          11 18  03 56.48  +40 58.7   1.759  1.305    66.9 /  55  13.9  100  .23

          12 18  04 01.36  +41 36.7   1.749  1.298    67.4 /  56  13.8  110  .32

          13 18  04 06.38  +42 14.4   1.739  1.290    68.0 /  56  13.8  121  .41

          14 18  04 11.53  +42 51.6   1.730  1.282    68.6 /  57  13.8  131  .51

          15 18  04 16.82  +43 28.3   1.721  1.275    69.1 /  58  13.7  142  .61

          16 18  04 22.25  +44 04.6   1.713  1.268    69.6 /  59  13.7  151  .72

          17 18  04 27.83  +44 40.2   1.705  1.260    70.1 /  60  13.7  159  .81

          18 18  04 33.56  +45 15.2   1.697  1.254    70.6 /  61  13.6  161  .89

          19 18  04 39.45  +45 49.4   1.689  1.247    71.1 /  61  13.6  155  .95

          20 18  04 45.48  +46 22.8   1.682  1.240    71.5 /  62  13.6  144  .99

          21 18  04 51.67  +46 55.2   1.676  1.234    72.0 /  63  13.5  132 1.00

          22 18  04 58.02  +47 26.7   1.669  1.227    72.4 /  65  13.5  119  .97

          23 18  05 04.52  +47 57.2   1.663  1.221    72.7 /  66  13.5  106  .92

          24 18  05 11.18  +48 26.5   1.658  1.215    73.1 /  67  13.4   94  .84

          25 18  05 17.99  +48 54.6   1.653  1.209    73.4 /  68  13.4   81  .75

          26 18  05 24.95  +49 21.4   1.648  1.203    73.7 /  69  13.4   70  .65

          27 18  05 32.06  +49 46.8   1.644  1.198    73.9 /  70  13.4   58  .54

          28 18  05 39.31  +50 10.7   1.640  1.193    74.1 /  72  13.3   48  .44

          29 18  05 46.70  +50 33.1   1.636  1.187    74.3 /  73  13.3   39  .34

          30 18  05 54.22  +50 53.8   1.633  1.183    74.5 /  74  13.3   31  .25

          31 18  06 01.86  +51 12.9   1.630  1.178    74.6 /  76  13.3   25  .17

     Aug.  1 18  06 09.61  +51 30.2   1.628  1.173    74.7 /  77  13.3   23  .10

NAKANO

         **** Don't distribute anyone except personal use only ****

                (C) Copyright 2005 OAA/ComputingSection

write mail from CFAD0::NAKANO on 2005-07-09 01:02:32(JST).



戻ります。